TimeMDT,TemperatureF,Dew PointF,Humidity,Sea Level PressureIn,VisibilityMPH,Wind Direction,Wind SpeedMPH,Gust SpeedMPH,PrecipitationIn,Events,Conditions,WindDirDegrees,DateUTC
12:15 AM,51.8,46.4,82,30.17,10.0,NNE,8.1,-,N/A,,Clear,20,2013-07-07 06:15:00
12:35 AM,51.8,46.4,82,30.18,10.0,East,6.9,-,N/A,,Clear,90,2013-07-07 06:35:00
12:55 AM,48.2,46.4,93,30.18,10.0,West,8.1,-,N/A,,Clear,260,2013-07-07 06:55:00
1:15 AM,48.2,46.4,93,30.17,10.0,West,5.8,-,N/A,,Clear,280,2013-07-07 07:15:00
1:35 AM,48.2,46.4,93,30.18,10.0,Calm,Calm,-,N/A,,Clear,0,2013-07-07 07:35:00
1:55 AM,46.4,46.4,100,30.17,10.0,North,3.5,-,N/A,,Clear,360,2013-07-07 07:55:00
2:15 AM,46.4,44.6,93,30.17,10.0,NNE,3.5,-,N/A,,Clear,30,2013-07-07 08:15:00
2:35 AM,46.4,44.6,93,30.17,10.0,Calm,Calm,-,N/A,,Clear,0,2013-07-07 08:35:00
2:55 AM,46.4,44.6,93,30.17,10.0,Calm,Calm,-,N/A,,Clear,0,2013-07-07 08:55:00
3:15 AM,44.6,44.6,100,30.17,10.0,North,3.5,-,N/A,,Clear,360,2013-07-07 09:15:00
3:35 AM,42.8,42.8,100,30.18,10.0,Calm,Calm,-,N/A,,Clear,0,2013-07-07 09:35:00
3:55 AM,44.6,44.6,100,30.18,10.0,Calm,Calm,-,N/A,,Clear,0,2013-07-07 09:55:00
4:15 AM,44.6,44.6,100,30.18,10.0,Calm,Calm,-,N/A,,Clear,0,2013-07-07 10:15:00
4:55 AM,41.0,39.2,93,30.18,10.0,North,5.8,-,N/A,,Clear,10,2013-07-07 10:55:00
5:15 AM,42.8,42.8,100,30.18,10.0,North,5.8,-,N/A,,Clear,360,2013-07-07 11:15:00
5:35 AM,42.8,42.8,100,30.19,10.0,North,4.6,-,N/A,,Clear,10,2013-07-07 11:35:00
5:55 AM,42.8,42.8,100,30.19,10.0,Calm,Calm,-,N/A,,Clear,0,2013-07-07 11:55:00
6:15 AM,42.8,42.8,100,30.20,10.0,North,3.5,-,N/A,,Clear,10,2013-07-07 12:15:00
6:35 AM,42.8,42.8,100,30.20,10.0,Calm,Calm,-,N/A,,Scattered Clouds,0,2013-07-07 12:35:00
6:51 AM,42.8,41.0,93,30.20,10.0,Calm,Calm,-,N/A,,Partly Cloudy,0,2013-07-07 12:51:00
7:51 AM,48.2,46.4,93,30.21,10.0,Calm,Calm,-,N/A,,Scattered Clouds,0,2013-07-07 13:51:00
8:55 AM,51.8,48.2,88,30.21,10.0,Calm,Calm,-,N/A,,Scattered Clouds,0,2013-07-07 14:55:00
9:53 AM,57.2,51.8,82,30.19,10.0,SSE,3.5,-,N/A,,Clear,150,2013-07-07 15:53:00
10:55 AM,60.8,51.8,72,30.18,10.0,South,4.6,-,N/A,,Clear,170,2013-07-07 16:55:00
11:52 AM,68.0,53.6,60,30.17,10.0,South,5.8,-,N/A,,Clear,180,2013-07-07 17:52:00
12:51 PM,71.6,53.6,53,30.15,10.0,South,6.9,-,N/A,,Partly Cloudy,190,2013-07-07 18:51:00
1:53 PM,75.2,51.8,44,30.13,10.0,SW,9.2,-,N/A,,Scattered Clouds,220,2013-07-07 19:53:00
2:57 PM,80.6,48.2,32,30.10,10.0,South,12.7,17.3,N/A,,Scattered Clouds,190,2013-07-07 20:57:00
3:51 PM,78.8,46.4,32,30.07,10.0,SSW,10.4,-,N/A,,Scattered Clouds,200,2013-07-07 21:51:00
4:59 PM,66.2,57.2,73,30.08,10.0,North,5.8,-,N/A,,Mostly Cloudy,360,2013-07-07 22:59:00
5:51 PM,71.6,59.0,64,30.08,10.0,North,5.8,-,N/A,,Scattered Clouds,10,2013-07-07 23:51:00
6:51 PM,69.8,50.0,49,30.09,10.0,North,9.2,-,N/A,,Mostly Cloudy,360,2013-07-08 00:51:00
7:51 PM,68.0,50.0,52,30.11,10.0,North,-9999.0,-,N/A,,Scattered Clouds,0,2013-07-08 01:51:00
8:51 PM,62.6,46.4,55,30.16,10.0,SSW,17.3,24.2,N/A,,Mostly Cloudy,200,2013-07-08 02:51:00
9:15 PM,60.8,48.2,63,30.15,10.0,South,21.9,26.5,N/A,,Overcast,170,2013-07-08 03:15:00
9:55 PM,59.0,48.2,67,30.21,10.0,SW,16.1,27.6,N/A,,Overcast,230,2013-07-08 03:55:00
10:15 PM,57.2,50.0,77,30.19,10.0,SW,16.1,24.2,N/A,,Mostly Cloudy,230,2013-07-08 04:15:00
10:35 PM,57.2,50.0,77,30.20,10.0,SW,16.1,29.9,N/A,,Partly Cloudy,220,2013-07-08 04:35:00
10:55 PM,57.2,48.2,72,30.20,10.0,SSW,11.5,-,N/A,,Clear,210,2013-07-08 04:55:00
11:15 PM,57.2,48.2,72,30.21,10.0,SSW,9.2,-,N/A,,Clear,200,2013-07-08 05:15:00
11:35 PM,55.4,48.2,77,30.21,10.0,South,8.1,-,N/A,,Clear,190,2013-07-08 05:35:00
11:55 PM,55.4,48.2,77,30.21,10.0,South,6.9,-,N/A,,Clear,170,2013-07-08 05:55:00